#timestamp,LO_Frequency,Hit,StdDev 
1605715215.6,286047002.2,Y
1605715235.4,286046998.3,P
1605715255.3,286047000.2,N
1605715275.1,286047000.3,N
1605715295.9,286047001.4,N
1605715315.7,286046999.2,N
1605715335.5,286046998.9,N
1605715355.4,286047000.6,N
1605715375.2,286046999.3,N
1605715395.0,286046999.1,N
1605715395.9,286046999.1,N
1605715415.8,286047000.9,N
1605715435.6,286047000.8,N
1605715455.5,286046999.6,N
1605715475.3,286047001.0,N
1605715495.1,286046998.1,N
1605715515.9,286046999.5,N
1605715535.7,286047000.9,N
1605715555.5,286047001.1,N
1605715575.4,286046996.7,N
1605715595.2,286046996.5,N
1605715615.1,286046999.5,N
1605715616.0,286046999.5,N
1605715635.8,286047000.8,N
1605715655.6,286046996.7,N
1605715675.5,286046999.0,N
1605715695.3,286047002.2,N
1605715715.1,286047003.6,N
1605715735.9,286047005.9,Y
1605715755.7,286047007.1,P
1605715775.6,286047007.6,N
1605715795.4,286047003.3,N
1605715815.2,286047003.7,N
1605715835.1,286047003.1,N
1605715836.0,286047003.1,N
1605715855.8,286047001.4,N
1605715875.6,286047002.5,N
1605715895.5,286047001.0,N
1605715915.3,286047002.4,N
1605715935.2,286047002.1,N
1605715955.9,286047001.3,N
1605715975.7,286046998.3,N
1605715995.6,286046998.2,N
1605716015.4,286046996.5,N
1605716035.2,286046998.0,N
1605716055.1,286046998.6,N
1605716056.0,286046998.6,N
1605716075.8,286046997.1,N
1605716095.7,286046997.9,N
1605716115.5,286047000.7,N
1605716135.3,286047001.6,N
1605716155.2,286047004.2,N
1605716175.0,286047001.9,N
1605716175.9,286047001.9,N
1605716195.7,286047002.7,N
1605716215.6,286047002.3,N
1605716235.4,286046998.1,N
1605716255.3,286046998.6,N
1605716275.1,286046998.4,N
1605716276.0,286046998.4,N
1605716295.8,286046999.6,N
1605716315.7,286047000.4,N
1605716335.5,286046998.5,N
1605716355.3,286046998.8,N
1605716375.2,286047000.7,N
1605716395.0,286047001.0,N
1605716395.9,286047001.0,N
1605716415.8,286047000.3,N
1605716435.6,286046998.9,N
1605716455.4,286046997.3,N
1605716475.3,286046999.0,N
1605716495.1,286046999.8,N
1605716515.9,286047002.2,N
1605716535.7,286047004.3,N
1605716555.5,286047003.9,N
1605716575.4,286047000.2,N
1605716595.2,286047004.4,N
1605716615.0,286047000.4,N
1605716616.0,286047000.4,N
1605716635.8,286046999.9,N
1605716655.6,286046999.9,N
1605716675.5,286047000.3,N
1605716695.3,286047000.3,N
1605716715.1,286047001.2,N
1605716735.9,286047000.4,N
1605716755.7,286046998.6,N
1605716775.6,286046996.8,N
1605716795.4,286046996.9,N
1605716815.2,286046999.1,N
1605716835.1,286046998.1,N
1605716836.0,286046998.1,N
1605716855.8,286046998.6,N
1605716875.7,286046997.0,N
1605716895.5,286046998.1,N
1605716915.3,286046999.6,N
1605716935.2,286046999.9,N
1605716955.0,286047002.0,N
1605716955.9,286047002.0,N
1605716975.7,286047004.1,N
1605716995.6,286047002.6,N
1605717015.4,286047002.0,N
1605717035.3,286047002.2,N
1605717055.1,286046998.6,N
1605717056.0,286046998.6,N
1605717075.8,286046999.1,N
1605717095.7,286046999.0,N
1605717115.5,286046996.8,N
1605717135.4,286046997.4,N
1605717155.2,286046997.6,N
1605717175.0,286046997.0,N
1605717175.9,286046997.0,N
1605717195.8,286046998.7,N
1605717215.6,286046995.0,N
1605717235.4,286046995.9,N
1605717255.3,286046996.1,N
1605717275.1,286046995.4,N
1605717295.9,286046993.4,N
1605717315.7,286046993.8,N
1605717335.5,286046996.3,N
1605717355.4,286046995.6,N
1605717375.2,286046997.3,N
1605717395.0,286046998.6,N
1605717395.9,286046998.6,N
1605717415.8,286046996.5,N
1605717435.6,286046998.7,N
1605717455.5,286046997.4,N
1605717475.3,286046999.3,N
1605717495.1,286046998.3,N
1605717515.9,286046999.4,N
1605717535.7,286046999.6,N
1605717555.5,286046999.6,N
1605717575.4,286046995.1,N
1605717595.2,286046995.1,N
1605717615.1,286046999.5,N
1605717616.0,286046999.5,N
1605717635.8,286046999.4,N
1605717655.6,286046995.2,N
1605717675.5,286046995.4,N
1605717695.3,286046995.2,N
1605717715.1,286046999.4,N
1605717735.9,286046996.7,N
1605717755.7,286046993.9,Y
1605717775.6,286046997.5,P
1605717795.4,286046997.4,P
1605717815.2,286046997.7,P
1605717835.1,286046996.5,Y
1605717836.0,286046996.5,P
1605717855.8,286047000.1,N
1605717875.7,286047000.4,N
1605717895.5,286046999.4,N
1605717915.3,286046999.7,N
1605717935.2,286047004.3,N
1605717955.9,286047001.3,N
1605717975.7,286046999.8,N
1605717995.6,286047000.9,N
1605718015.4,286047001.0,N
1605718035.3,286046997.2,N
1605718055.1,286047000.7,N
1605718056.0,286047000.7,N
1605718075.8,286047000.9,N
1605718095.7,286047000.4,N
1605718115.5,286047000.4,N
1605718135.3,286046998.4,N
1605718155.2,286046998.3,N
1605718175.0,286046998.2,N
1605718175.9,286046998.2,N
1605718195.8,286046996.5,N
1605718215.6,286046997.9,N
1605718235.4,286046995.5,N
1605718255.3,286046998.8,N
1605718275.1,286047000.4,N
1605718295.8,286046999.5,N
1605718315.7,286047002.8,N
1605718335.5,286047001.5,N
1605718355.4,286047001.6,N
1605718375.2,286047003.8,N
1605718395.0,286047004.4,N
1605718395.9,286047004.4,N
1605718415.8,286047002.0,N
1605718435.6,286047001.7,N
1605718455.4,286047006.0,N
1605718475.3,286047003.2,N
1605718495.1,286047004.2,N
1605718515.9,286047004.4,N
1605718535.7,286047000.2,N
1605718555.5,286047004.2,N
1605718575.4,286047001.9,N
1605718595.2,286047003.8,N
1605718615.0,286047001.0,N
1605718615.9,286047001.0,N
1605718635.8,286047000.1,N
1605718655.6,286047002.2,N
1605718675.5,286046998.2,N
1605718695.3,286046996.6,N
1605718715.1,286046995.2,N
1605718735.9,286046998.9,N
1605718755.7,286046998.5,N
1605718775.5,286047000.2,N
1605718795.4,286046999.0,N
